Preview of NWS' New Version of Forecast
This preview is not operational and should not be used for support decisions.

Regional Weather Roundup (RWR)

Issued by National Weather Service (NWS)

                            
502 
ASUS45 KBOI 212310
RWRID 

IDAHO REGIONAL WEATHER ROUNDUP
NATIONAL WEATHER SERVICE BOISE ID
500 PM MDT THU JUN 21 2018

NOTE: "FAIR" INDICATES FEW OR NO CLOUDS BELOW 12000 FEET
WITH NO SIGNIFICANT WEATHER AND/OR OBSTRUCTIONS TO VISIBILITY

IDZ012-014-220000-
SOUTHWEST IDAHO

  
CITY           SKY/WX    TMP DP  RH WIND       PRES   REMARKS
BOISE          MOSUNNY   81  50  33 NW15      30.02S                  
CALDWELL       MOSUNNY   81  53  37 W12G18    30.02F                  
MOUNTAIN HOME  SUNNY     85  46  25 NW22G29   30.00S                  
$$

IDZ016-017-220000-
SOUTHCENTRAL IDAHO

  
CITY           SKY/WX    TMP DP  RH WIND       PRES   REMARKS
BURLEY         SUNNY     81  47  30 W14G20    30.03F                  
JEROME         SUNNY     82  47  29 W17G26    30.04F                  
TWIN FALLS     SUNNY     81  47  30 NW15G22   30.04F                  
$$

IDZ019>023-220000-
SOUTHEAST IDAHO

  
CITY           SKY/WX    TMP DP  RH WIND       PRES   REMARKS
IDAHO FALLS    MOSUNNY   79  50  36 SW25G33   30.03F                  
POCATELLO      MOSUNNY   81  45  28 SW22G28   30.05F                  
REXBURG        LGT RAIN  64  48  56 E9G17     30.06S                  
$$

IDZ006-010-011-018-031-032-220000-
CENTRAL IDAHO MOUNTAINS

  
CITY           SKY/WX    TMP DP  RH WIND       PRES   REMARKS
MCCALL         CLOUDY    62  50  64 W6        30.10F                  
HAILEY         MOSUNNY   73  34  23 SW14G23   30.09R                  
STANLEY          N/A     61  42  49 NW12G20   30.17R                  
SALMON         PTSUNNY   68  52  56 NW8       30.01S THUNDER          
CHALLIS        PTSUNNY   74  46  36 N6        30.02S                  
$$

IDZ002-004-006-007-026-220000-
NORTHERN IDAHO

  
CITY           SKY/WX    TMP DP  RH WIND       PRES   REMARKS
LEWISTON       PTSUNNY   77  57  50 S7        29.97F                  
LOWELL           N/A     72  64  76 CALM      29.98F                  
COEUR D'ALENE  MOSUNNY   74  58  57 S8        29.98F                  
MULLAN PASS    MOSUNNY   61  48  62 VRB5      30.10F                  
$$